Regional Weather Roundup
Issued by NWS Northern Indiana

Home | Current Version | Previous Version | Graphics & Text | Print | Product List | Glossary On
Versions: 1 2 3 4 5 6 7 8 9 10 11 12 13 14 15 16 17 18 19 20 21 22 23 24 25 26 27 28 29 30 31 32 33 34 35 36 37 38 39 40 41 42 43 44 45 46 47 48 49 50
364
ASUS43 KIWX 210010
RWRIWX

KIWX WEATHER ROUNDUP
NATIONAL WEATHER SERVICE NORTHERN INDIANA
800 PM EDT FRI OCT 20 2017

NOTE: "FAIR" INDICATES FEW OR NO CLOUDS BELOW 12,000 FEET WITH NO
SIGNIFICANT WEATHER AND/OR OBSTRUCTIONS TO VISIBILITY.

* THESE STATIONS ARE NOT UNDER NWS QUALITY CONTROL. THEY ALSO MAY NOT
  REPORT WEATHER SUCH AS PRECIPITATION OR FOG.

INZ001>027-210100-
NORTHERN INDIANA

CITY           SKY/WX    TMP DP  RH WIND       PRES   REMARKS
GARY*          MOCLDY    70  48  46 VRB5      30.08S
VALPARAISO     CLEAR     68  50  52 S6        30.11R
6HR MIN TEMP:  68; 6HR MAX TEMP:  79;

MICHIGAN CITY* CLEAR     64  50  59 S5        30.10S
LAPORTE*       CLEAR     66  50  55 S5        30.11S
6HR MIN TEMP:  66; 6HR MAX TEMP:  77;

KNOX*          CLEAR     61  48  63 S6        30.11R
SOUTH BEND     CLEAR     64  51  62 S7        30.12S
6HR MIN TEMP:  64; 6HR MAX TEMP:  76; 6HR PCP: TRACE;

ELKHART*       CLEAR     63  50  63 CALM      30.12S
GOSHEN         CLEAR     65  49  56 S8        30.13R
6HR MIN TEMP:  64; 6HR MAX TEMP:  76;

MONTICELLO*    CLEAR     65  49  57 SE3       30.12S
6HR MIN TEMP:  65; 6HR MAX TEMP:  76;

LOGANSPORT*    CLEAR     61  46  59 S6        30.14S
WARSAW*        CLEAR     64  50  59 CALM      30.14R
AUBURN*        CLEAR     61  50  67 CALM      30.16S
FORT WAYNE     PTCLDY    62  49  62 SE7       30.16R
6HR MIN TEMP:  61; 6HR MAX TEMP:  77;

HUNTINGTON*    CLEAR     64  49  58 CALM      30.15S
6HR MIN TEMP:  64; 6HR MAX TEMP:  76;

PERU/GRISSOM   CLEAR     62  50  63 S7        30.14R
6HR MIN TEMP:  62; 6HR MAX TEMP:  77;


$$
INZ028>050-210100-
CENTRAL INDIANA

CITY           SKY/WX    TMP DP  RH WIND       PRES   REMARKS
LAFAYETTE      CLEAR     62  50  64 CALM      30.12S
6HR MIN TEMP:  62; 6HR MAX TEMP:  76;

KOKOMO*        CLEAR     61  50  67 S5        30.16R
6HR MIN TEMP:  60; 6HR MAX TEMP:  77;

MUNCIE*        CLEAR     60  49  66 S5        30.17R
6HR MIN TEMP:  59; 6HR MAX TEMP:  79;

INDIANAPOLIS   PTCLDY    65  49  56 SE6       30.15F
6HR MIN TEMP:  65; 6HR MAX TEMP:  76;


$$
MIZ043>046-050>051-056>058-064>065-071>073-077>080-210100-
SOUTHWEST LOWER MICHIGAN

CITY           SKY/WX    TMP DP  RH WIND       PRES   REMARKS
BATTLE CREEK   CLOUDY    66  52  60 S5        30.13S
6HR MIN TEMP:  63; 6HR MAX TEMP:  76;

BENTON HARBOR  CLEAR     68  49  50 S5        30.09S
6HR MIN TEMP:  68; 6HR MAX TEMP:  78;

COLDWATER*     CLEAR     62  51  67 SE3       30.14R
6HR MIN TEMP:  62; 6HR MAX TEMP:  76;

HILLSDALE*     CLEAR     61  48  63 SE5       30.15S
HOLLAND        CLEAR     64  50  60 S6        30.09S
6HR MIN TEMP:  64; 6HR MAX TEMP:  78;

GRAND RAPIDS   MOCLDY    64  52  64 S8        30.09F
6HR MIN TEMP:  64; 6HR MAX TEMP:  78;

KALAMAZOO      CLEAR     67  50  54 S6        30.13R
6HR MIN TEMP:  66; 6HR MAX TEMP:  76;

STURGIS*       CLEAR     65  52  63 S6        30.13R
6HR MIN TEMP:  65; 6HR MAX TEMP:  75;

THREE RIVERS*  FAIR      64  52  66 S3        30.13R
6HR MIN TEMP:  64; 6HR MAX TEMP:  77;


$$
OHZ001>008-015>018-024>025-210100-
NORTHWEST OHIO

CITY           SKY/WX    TMP DP  RH WIND       PRES   REMARKS
WAUSEON*       FAIR      61  50  67 S6        30.16S
DEFIANCE       CLEAR     67  50  54 SE5       30.15F
6HR MIN TEMP:  67; 6HR MAX TEMP:  76;

FINDLAY        CLEAR     64  45  49 SE7       30.17S
6HR MIN TEMP:  64; 6HR MAX TEMP:  77;

TOLEDO EXPRESS CLEAR     59  54  83 CALM      30.16R
6HR MIN TEMP:  59; 6HR MAX TEMP:  77;

TOLEDO METCALF CLEAR     63  45  51 SE6       30.17S
6HR MIN TEMP:  63; 6HR MAX TEMP:  76;

LIMA           CLEAR     64  50  60 S5        30.19R
6HR MIN TEMP:  62; 6HR MAX TEMP:  76;


$$
AND FOR LAKE MICHIGAN COASTAL AND OPEN LAKE BUOY OBSERVATIONS

STATION/POSITION TEMP    WIND        PRES    VSBY  WAVE
                 AIR SEA DIR/SP/G                  HT/PER
                 (F)     (DEG/KT/KT) (MB)    (MI)  (FT/S)
CALUMET HARBOR    72     160/  5/  7 1017.4F
MICHIGAN CITY     71     150/  9/ 10   N/A
BURNS HARBOR      71     180/  8/ 14 1019.0S
SAINT JOSEPH      69     170/  2/  5 1020.0
SOUTH LAKE BUOY   65 61  150/ 12/ 14 1017.6S         2/ 4
4 MI NW BRIDGMAN  64 59  190/  6/  8 1018.9R         1
MICHIGAN CITY     65 59  150/  6/  8   N/A           1

$$
&&




USA.gov is the U.S. government's official web portal to all federal, state and local government web resources and services.